Welcome to the New NWS' Forecast!
Most changes are behind the scenes, but click here for differences you might notice.
Latest weather observations around

Montgomery, Dannelly Field (KMGM)

Using English Units (Switch to International System of Units)
Date/ Time (CDT) Wind (mph) Vis. (mi) Weather Sky Cond. Temp (°F) Rel. Humidity Wind Chill (°F) Heat Index (°F) Pressure Precip. (in)
Air Dwpt 6 hour Altimeter (inHg) Sea level (inHg) 1 hr 3 hr 6 hr
Max Min
Jul 15 16:53 S 8 10 Clear CLR 91 75     60%   102 29.96 29.95      
Jul 15 15:53 SE 7 10 Mostly Clear FEW049 94 75     54%   106 29.97 29.96      
Jul 15 14:53 NNE 5 10 Mostly Cloudy BKN045 92 71     51%   99 29.99 29.98      
Jul 15 13:53 NNW 5 10 Clear CLR 93 75     56%   105 30 29.99      
Jul 15 12:53 N 7 10 Clear CLR 93 76     58%   106 30.03 30.02      
Jul 15 11:53 3 10 Clear CLR 91 77     64%   105 30.06 30.05      
Jul 15 10:53 Calm 10 Clear CLR 87 77     72%   99 30.07 30.06      
Jul 15 09:53 Calm 10 Clear CLR 86 76     72%   96 30.07 30.06      
Jul 15 08:53 3 10 Partly Cloudy SCT008 82 76     82%   89 30.08 30.06      
Jul 15 07:53 Calm 8 Partly Cloudy SCT002 78 76     93%   80 30.07 30.06      
Jul 15 07:21 Calm 3 Fog/Mist OVC002 77 75     94%   79 30.07        
Jul 15 07:17 Calm 1.5 Fog/Mist OVC002 76 75     97%   78 30.07        
Jul 15 07:11 Calm 0.5 Fog OVC002 76 75     97%   78 30.06        
Jul 15 07:04 Calm 0.25 Fog VV002 76 75     97%   78 30.06        
Jul 15 06:53 Calm 0.5 Fog BKN002 76 74     94%   78 30.07 30.06      
Jul 15 06:49 Calm 0.5 Fog BKN002 75 73     94%   77 30.07        
Jul 15 06:42 N 3 7 Partly Cloudy SCT002 76 74     94%   78 30.06        
Jul 15 05:53 Calm 9 Clear CLR 75 73     94%   77 30.05 30.04      
Jul 15 04:53 E 5 8 Clear CLR 74 73     97%   76 30.04 30.03      
Jul 15 04:11 Calm 6 Fog/Mist FEW002 74 73     97%   76 30.05        
Jul 15 03:53 Calm 7 Clear CLR 74 73     97%   76 30.04 30.03      
Jul 15 02:53 Calm 8 Clear CLR 74 73     97%   76 30.04 30.03      
Jul 15 01:53 SSE 3 9 Clear CLR 75 74     96%   77 30.04 30.03      
Jul 15 00:53 E 5 8 Clear CLR 75 74     96%   77 30.05 30.04      
Jul 14 23:53 SE 5 9 Cloudy OVC100 76 75     97%   78 30.07 30.06      
Jul 14 22:53 S 7 8 Clear CLR 75 74     96%   77 30.08 30.06      
Jul 14 21:53 ESE 7 10 Clear CLR 76 74     94%   78 30.05 30.04      
Jul 14 20:53 Calm 10 Clear CLR 77 75     94%   79 30.05 30.04      
Jul 14 19:53 Calm 10 Clear CLR 77 75     94%   79 30.04 30.03      
Jul 14 18:53 Calm 10 Clear CLR 78 75     90%   80 30.05 30.04     1
Jul 14 17:53 SW 6 10 Clear CLR 77 74     90%   79 30.05 30.04      
Jul 14 16:53 S 8 10 Clear CLR 77 74     90%   79 30.05 30.04      
Jul 14 15:53 SE 3 10 Clear CLR 78 75     90%   80 30.05 30.04 0 1  
Jul 14 15:34 S 3 10 Mostly Clear FEW110 78 75     90%   80 30.06   0    
Jul 14 14:53 S 5 10 Thunderstorms and Rain FEW055 BKN085 OVC110 78 75     90%   80 30.07 30.06 1    
Jul 14 14:16 N 8 5 Thunderstorms and Heavy Rain SCT024 BKN036 OVC110 79 74     85%   83 30.05   0    
Jul 14 14:08 ENE 13 2 Thunderstorms and Rain SCT019 BKN036 OVC110 78 73     85%   80 30.05   0    
Jul 14 14:06   1 Thunderstorms and Rain BKN017 BKN036 OVC065 78 73     85%   80 30.06   0    
Notice The following observation data may not be complete
Jul 14 14:02 NE 13 0.5 Thunderstorms and Heavy Rain and Fog BKN015 BKN032 OVC039   73      %     30.07   0    
Notice The following observation data may not be complete
Jul 14 13:59 NE 13 0.5 Thunderstorms and Heavy Rain and Fog and Squalls BKN008 BKN032 OVC040   73      %     30.08   0    
Jul 14 13:55   0.5 Heavy Rain and Squalls SCT008 BKN040 OVC080 78 73     85%   80 30.08   0    
Jul 14 13:53   1 Heavy Rain and Squalls FEW010 BKN040 OVC085 80 75     85%   85 30.08 30.07 0    
Jul 14 13:42 NNW 15 10 Mostly Cloudy BKN040 BKN055 BKN085 90 75     62%   101 30.06        
Jul 14 12:53 NNE 5 10 Mostly Clear FEW039 93 75     56%   105 30.06 30.05      
Jul 14 11:53 NNW 7 10 Mostly Clear FEW060 93 75     56%   105 30.09 30.08      
Jul 14 10:53 Calm 10 Clear CLR 90 76     64%   102 30.11 30.1      
Jul 14 09:53 5 10 Mostly Clear FEW019 FEW044 87 77     72%   99 30.11 30.1      
Jul 14 08:53 3 10 Clear CLR 84 76     77%   93 30.11 30.1      
Jul 14 07:53 Calm 10 Clear CLR 82 75     79%   89 30.1 30.09      
Jul 14 06:53 Calm 6 Fog/Mist CLR 77 75     94%   79 30.08 30.07      
Jul 14 05:53 Calm 5 Fog/Mist CLR 75 74     96%   77 30.08 30.07      
Jul 14 04:53 Calm 8 Clear CLR 76 74     94%   78 30.08 30.07      
Jul 14 02:53 Calm 9 Mostly Clear FEW039 FEW060 76 75     97%   78 30.08 30.07      
Jul 14 00:53 E 3 10 Clear CLR 77 74     90%   79 30.08 30.06      
Jul 13 23:53 Calm 10 Clear CLR 76 74     94%   78 30.07 30.06      
Jul 13 22:53 SE 6 10 Partly Cloudy SCT110 77 74     90%   79 30.09 30.08      
Jul 13 21:53 Calm 10 Clear CLR 77 74     90%   79 30.1 30.09      
Jul 13 20:53 Calm 10 Clear CLR 78 74     87%   80 30.07 30.06      
Jul 13 19:53 Calm 10 Clear CLR 78 74     87%   80 30.05 30.04      
Jul 13 18:53 WSW 5 10 Clear CLR 80 73     79%   84 30.07 30.06      
Jul 13 17:53 WNW 3 10 Mostly Cloudy FEW070 BKN110 80 74     82%   85 30.08 30.07      
Jul 13 17:08 NNW 16 10 Partly Cloudy SCT049 SCT075 81 74     79%   86 30.08        
Jul 13 16:53 N 7 10 Thunderstorms FEW049 83 73     72%   89 30.06 30.05      
Jul 13 16:33 N 8 10 Thunderstorms FEW048 FEW110 88 73     61%   96 30.05        
Jul 13 16:23 NW 8 10 Partly Cloudy FEW048 FEW070 SCT110 87 71     59%   93 30.05        
Jul 13 15:53 SW 9 10 Mostly Clear FEW037 95 74     51%   106 30.04 30.03      
Jul 13 14:53 Calm 10 Mostly Cloudy FEW047 BKN065 BKN110 93 73     52%   102 30.06 30.05      
Jul 13 13:53 5 10 Mostly Clear FEW042 FEW100 94 73     51%   103 30.07 30.06      
Jul 13 12:53 WNW 6 10 Mostly Clear FEW037 93 73     52%   102 30.11 30.1      
Jul 13 11:53 SW 6 10 Mostly Cloudy BKN032 90 75     62%   101 30.13 30.11      
Jul 13 10:53 WNW 8 10 Clear CLR 90 76     64%   102 30.14 30.13      
Jul 13 09:53 W 7 10 Clear CLR 88 75     66%   98 30.13 30.12      
Jul 13 08:53 W 8 10 Clear CLR 84 76     77%   93 30.14 30.13      
Jul 13 07:53 SSW 6 10 Clear CLR 80 76     87%   85 30.14 30.13      
Jul 13 06:53 Calm 5 Fog/Mist CLR 77 75     94%   79 30.12 30.11      
Jul 13 05:53 SW 3 4 Fog/Mist CLR 75 74     96%   77 30.1 30.09      
Jul 13 04:53 SW 5 5 Fog/Mist FEW048 75 74     96%   77 30.09 30.08      
Jul 13 03:53 SSW 5 6 Fog/Mist CLR 76 74     94%   78 30.08 30.07      
Jul 13 02:53 Calm 7 Mostly Clear FEW045 76 75     97%   78 30.07 30.06      
Jul 13 01:53 Calm 5 Fog/Mist CLR 77 75     94%   79 30.08 30.07      
Jul 13 00:53 Calm 5 Fog/Mist CLR 77 76     96%   79 30.08 30.07      
Jul 12 23:53 SSW 5 8 Clear CLR 77 75     94%   79 30.09 30.08      
Jul 12 22:53 Calm 10 Clear CLR 79 76     90%   83 30.09 30.08      
Jul 12 21:53 Calm 10 Clear CLR 78 76     93%   80 30.08 30.07      
Jul 12 19:53 NNW 5 10 Clear CLR 81 76     85%   87 30.05 30.04      
Jul 12 18:53 NW 3 10 Clear CLR 82 76     82%   89 30.04 30.03      
Jul 12 17:53 NNW 7 10 Clear CLR 85 75     72%   93 30.05 30.04      
May 15 10:53 E 8 10 Cloudy BKN033 OVC041 83 67     59%   86 29.99 29.98      
May 14 19:53 SE 7 10 Clear CLR 79 68     69%   80 29.93 29.92      
May 14 17:53 NE 5 10 Clear CLR 89 63     42%   90 29.92 29.91      
May 14 12:53 N 7 10 Mostly Clear FEW070 93 60     33%   93 30 29.98      
May 14 11:53 N 5 10 Clear CLR 93 64     38%   95 30.01 30      
May 13 00:53 Calm 10 Clear CLR 67 63     87%     30.07 30.06      
May 12 15:53 SW 7 10 Clear CLR 91 53     28%   89 30.08 30.07      
May 11 16:53 Calm 10 Mostly Clear FEW080 90 56     32%   88 30.05 30.04      
May 11 11:53 3 10 Clear CLR 86 59     40%   85 30.14 30.13      
Jun 12 08:37 ESE 8 10 Mostly Clear FEW015 81 70     69%   84 30.16        
Jun 11 20:53 ESE 5 10 Clear CLR 79 71     77%   82 30.1 30.09      
Jun 11 16:53 SSE 9 10 Clear CLR 84 68     59%   87 30.07 30.06      
Jun 11 10:53 SE 7 10 Mostly Clear FEW028 86 68     55%   89 30.14 30.13      
Jun 11 10:10 ESE 7 10 Partly Cloudy SCT023 85 70     61%   89 30.15        
Jun 11 09:53 SE 8 10 Mostly Cloudy BKN023 84 70     63%   88 30.15 30.14      
Jun 09 16:53 S 5 10 Clear CLR 87 56     35%   86 29.92 29.91      
Jun 09 15:53 5 10 Mostly Clear FEW060 86 56     36%   85 29.93 29.92      
Jun 08 06:53 Calm 10 Clear CLR 67 58     73%     29.89 29.88      
Jun 07 10:53 NNE 10 10 Clear CLR 80 66     62%   82 29.77 29.76      
Jun 06 13:58 N 9 2 Heavy Rain FEW027 BKN034 OVC060 75 70     84%   76 29.73   0    
Jun 06 13:43 N 10 1.25 Heavy Rain FEW006 BKN022 OVC040 74 69     85%   75 29.74   0    
Jun 06 12:53 SE 11 10 Mostly Cloudy FEW021 SCT033 BKN042 80 70     71%   83 29.75 29.74      
Jun 06 09:53 NE 9 10 Mostly Cloudy BKN007 79 71     77%   82 29.76 29.75      
Jun 06 07:53 Calm 10 Mostly Clear FEW004 74 69     85%   75 29.78 29.77      
Notice The following observation data may not be complete
Jun 05 21:03   6 Rain FEW006 BKN023 OVC110          %         0    
Jun 05 19:28 N 3 10 Mostly Cloudy SCT027 BKN065 75 68     79%   76 29.79